|
ATLAS 5 CENTAUR R/B - Orbit
|
Diamond Trailhead;
03:40:03
| Home | Info | Passes |
|
View from above orbital plane
|
View from above satellite
|
Ground track
|
The orbit data is extracted from the following two-line orbital elements,
1 31702U 07027B 13141.05432594 0.00000100 00000-0 46527-4 0 03
2 31702 63.3729 233.1281 0097000 337.7895 22.2105 14.17924144 02
| Epoch (UTC): | 21 May 2013 01:18:13 |
| Eccentricity: | 0.0097000 |
| inclination: | 63.3729° |
| perigee height: | 762 km |
| apogee height: | 902 km |
| right ascension of ascending node: | 233.1281° |
| argument of perigee: | 337.7895° |
| revolutions per day: | 14.17924144 |
| mean anomaly at epoch: | 22.2105° |
| orbit number at epoch: | 0 |
The dashed part of the orbit path shows where the satellite is in the earth's shadow,
|
|